Regional Weather Roundup
Issued by NWS Little Rock, AR

Home | Current Version | Previous Version | Text Only | Print | Product List | Glossary On
Versions: 1 2 3 4 5 6 7 8 9 10 11 12 13 14 15 16 17 18 19 20 21 22 23 24 25 26 27 28 29 30 31
000
ASUS44 KLZK 271212
RWRLZK

WEATHER ROUNDUP FOR ARKANSAS
NATIONAL WEATHER SERVICE LITTLE ROCK AR
700 AM CDT THU JUL 27 2017

NOTE: "FAIR" INDICATES FEW OR NO CLOUDS BELOW 12,000 FEET WITH NO
SIGNIFICANT WEATHER AND/OR OBSTRUCTIONS TO VISIBILITY.

ARZ001-003-010-029-271300-
NORTHWEST ARKANSAS

CITY           SKY/WX    TMP DP  RH WIND       PRES   REMARKS
FAYETTEVILLE   MOCLDY    77  72  84 S8        30.01R
6HR MIN TEMP:  72; 6HR MAX TEMP:  79; 6HR PCP: TRACE;

FORT SMITH     CLOUDY    78  75  90 NE5       29.98R
6HR MIN TEMP:  77; 6HR MAX TEMP:  81;

HARRISON       CLOUDY    78  70  76 VRB3      30.02R
6HR MIN TEMP:  76; 6HR MAX TEMP:  79;

BENTONVILLE    CLOUDY    79  70  73 CALM      30.02S
6HR MIN TEMP:  79; 6HR MAX TEMP:  81;

ROGERS         CLOUDY    79  71  76 SW10      30.02S
6HR MIN TEMP:  79; 6HR MAX TEMP:  80; 6HR PCP: TRACE;

SILOAM SPGS    CLOUDY    79  70  73 SW5       30.01S
6HR MIN TEMP:  77; 6HR MAX TEMP:  79;

HIGHFILL       CLOUDY    79  72  79 SW5       30.02R
6HR MIN TEMP:  77; 6HR MAX TEMP:  79;

SPRINGDALE     MOCLDY    79  72  78 SW10      30.03S
$$

ARZ004-005-016-271300-
NORTH CENTRAL ARKANSAS

CITY           SKY/WX    TMP DP  RH WIND       PRES   REMARKS
BATESVILLE     MOCLDY    75  72  88 CALM      29.99S
6HR MIN TEMP:  75; 6HR MAX TEMP:  82;

FLIPPIN        CLOUDY    73  66  78 CALM      29.97S
6HR MIN TEMP:  73; 6HR MAX TEMP:  81;

MTN HOME       CLOUDY    74  70  87 CALM      30.00R
6HR MIN TEMP:  73; 6HR MAX TEMP:  78;

$$

ARZ040-041-271300-
WEST CENTRAL ARKANSAS

CITY           SKY/WX    TMP DP  RH WIND       PRES   REMARKS
MENA           CLEAR     81  79  94 W7        30.05R HX  89
MOUNT IDA      CLOUDY    74  71  91 CALM      30.00R
6HR MIN TEMP:  74; 6HR MAX TEMP:  81;

$$

ARZ009-017-025-026-028-271300-
NORTHEAST ARKANSAS

CITY           SKY/WX    TMP DP  RH WIND       PRES   REMARKS
JONESBORO      PTCLDY    78  77  96 SW6       29.99R
6HR MIN TEMP:  78; 6HR MAX TEMP:  82;

WALNUT RIDGE   PTCLDY    75  73  94 S5        29.98S
6HR MIN TEMP:  75; 6HR MAX TEMP:  79;

BLYTHEVILLE    CLOUDY    77  75  93 SW6       30.00R
6HR MIN TEMP:  76; 6HR MAX TEMP:  80;

$$

ARZ022-023-033-042-044-271300-
CENTRAL ARKANSAS

CITY           SKY/WX    TMP DP  RH WIND       PRES   REMARKS
LITTLE ROCK    CLOUDY    77  76  96 S7        30.00S
6HR MIN TEMP:  76; 6HR MAX TEMP:  80;

N LITTLE ROCK    N/A     79  74  84 W5        29.98S
6HR MIN TEMP:  78; 6HR MAX TEMP:  82;

JACKSONVILLE   CLOUDY    76  75  97 CALM      29.99S
6HR MIN TEMP:  75; 6HR MAX TEMP:  82;

CONWAY           N/A     77  73  88 S3        29.97S
SEARCY         CLOUDY    75  75 100 CALM      30.01R FOG
6HR MIN TEMP:  74; 6HR MAX TEMP:  78;

HOT SPRINGS    CLOUDY    78  74  87 W3        30.02R
6HR MIN TEMP:  78; 6HR MAX TEMP:  81;

RUSSELLVILLE   MOCLDY    74  73  97 CALM      29.98S
6HR MIN TEMP:  73; 6HR MAX TEMP:  76;

CLINTON        FAIR      72  72 100 CALM      30.00S FOG
$$

ARZ036-271300-
EAST ARKANSAS

CITY           SKY/WX    TMP DP  RH WIND       PRES   REMARKS
WEST MEMPHIS   CLOUDY    76  75  97 S5        30.00R
6HR MIN TEMP:  75; 6HR MAX TEMP:  79;

$$

ARZ050-053-066-070-073-271300-
SOUTHWEST ARKANSAS

CITY           SKY/WX    TMP DP  RH WIND       PRES   REMARKS
ARKADELPHIA    FAIR      74  74 100 SE3       30.02R
6HR MIN TEMP:  74; 6HR MAX TEMP:  77;

CAMDEN         CLEAR     75  72  88 S3        30.02S
TEXARKANA      CLEAR     77  74  90 SW7       30.02R
6HR MIN TEMP:  76; 6HR MAX TEMP:  82;

EL DORADO      CLEAR     75  74  96 SW3       30.04R
6HR MIN TEMP:  75; 6HR MAX TEMP:  79;

DE QUEEN       CLEAR     73  73 100 CALM      30.00S FOG
6HR MIN TEMP:  72; 6HR MAX TEMP:  77;

$$

ARZ056-057-069-271300-
SOUTHEAST ARKANSAS

CITY           SKY/WX    TMP DP  RH WIND       PRES   REMARKS
PINE BLUFF     CLEAR     77  73  87 SW3       30.02R
6HR MIN TEMP:  75; 6HR MAX TEMP:  79;

STUTTGART      CLEAR     77  64  65 S6        30.01S
6HR MIN TEMP:  77; 6HR MAX TEMP:  82;

MONTICELLO     CLEAR     78  73  84 W6        30.03R
6HR MIN TEMP:  78; 6HR MAX TEMP:  83;


$$






USA.gov is the U.S. government's official web portal to all federal, state and local government web resources and services.